This is the latest recevied weather packets stored in our database for station/object K5NOC-12. If no packets are shown the sender has not sent any weather packets the latest 10 day(s).
| Time | Temp. | Humidity | Pressure | Rain* | Wind** | Luminosity | Snow |
|---|---|---|---|---|---|---|---|
| 1777627578 | 10.56° C | 51% | 1018.5 hPa | 0 mm | - | - | - |
| 1777626678 | 11.67° C | 46% | 1018.7 hPa | 0 mm | - | - | - |
| 1777625778 | 11.67° C | 44% | 1018.9 hPa | 0 mm | - | - | - |
| 1777624878 | 11.67° C | 44% | 1018.8 hPa | 0 mm | - | - | - |
| 1777623978 | 11.67° C | 44% | 1018.7 hPa | 0 mm | - | - | - |
| 1777623077 | 12.22° C | 45% | 1019.1 hPa | 0 mm | - | - | - |
| 1777622177 | 12.22° C | 48% | 1019.1 hPa | 0 mm | - | - | - |
| 1777621277 | 12.22° C | 57% | 1019.2 hPa | 0 mm | - | - | - |
| 1777620377 | 12.22° C | 60% | 1019.3 hPa | 0 mm | - | - | - |
| 1777619477 | 12.22° C | 62% | 1019.3 hPa | 0 mm | - | - | - |
| 1777618577 | 12.22° C | 63% | 1019.3 hPa | 0 mm | - | - | - |
| 1777617677 | 12.22° C | 66% | 1019.1 hPa | 0 mm | - | - | - |
| 1777616777 | 12.22° C | 66% | 1019 hPa | 0 mm | - | - | - |
| 1777615876 | 12.22° C | 66% | 1019.1 hPa | 0 mm | - | - | - |
| 1777614976 | 12.22° C | 65% | 1019 hPa | 0 mm | - | - | - |
| 1777614076 | 12.78° C | 65% | 1018.8 hPa | 0 mm | - | - | - |
| 1777613176 | 12.78° C | 66% | 1018.7 hPa | 0 mm | - | - | - |
| 1777612276 | 12.78° C | 67% | 1018.8 hPa | 0 mm | - | - | - |
| 1777611376 | 12.78° C | 67% | 1018.9 hPa | 0 mm | - | - | - |
| 1777610476 | 12.78° C | 67% | 1018.9 hPa | 0 mm | - | - | - |
| 1777609575 | 13.33° C | 64% | 1018.7 hPa | 0 mm | - | - | - |
| 1777608675 | 13.33° C | 66% | 1018.7 hPa | 0 mm | - | - | - |
| 1777607775 | 13.33° C | 63% | 1018.7 hPa | 0 mm | - | - | - |
| 1777606875 | 13.33° C | 62% | 1018.6 hPa | 0 mm | - | - | - |
| 1777605975 | 13.89° C | 63% | 1018.3 hPa | 0 mm | - | - | - |
* Rain latest hour (hover to see other rain measurements)
** Current wind speed in m/s (hover to see current wind gust speed)